Regional Weather Roundup
Issued by NWS Upton, NY

Home | Current Version | Previous Version | Text Only | Print | Product List | Glossary On
Versions: 1 2 3 4 5 6 7 8 9 10 11 12 13 14 15 16 17 18 19 20 21 22 23 24 25 26 27
000
ASUS41 KOKX 252109
RWROKX

REGIONAL WEATHER ROUNDUP
NATIONAL WEATHER SERVICE NEW YORK NY
500 PM EDT TUE JUL 25 2017

NOTE: "FAIR" INDICATES FEW OR NO CLOUDS BELOW 12,000 FEET WITH NO
SIGNIFICANT WEATHER AND/OR OBSTRUCTIONS TO VISIBILITY.

NYZ071-072-176-178-NJZ106-104-252200-
NEW YORK CITY METRO AREA

CITY           SKY/WX    TMP DP  RH WIND       PRES   REMARKS
Central Park   CLOUDY    71  60  68 CALM      30.16S
Bronx Bot Gard   N/A     68  59  73 E2        30.14F
LaGuardia APRT CLOUDY    69  61  75 NE10      30.13S
Kennedy INTL   PTSUNNY   69  63  81 SE8       30.14R
Breezy Point     N/A     68 N/A N/A E7          N/A
Newark/Liberty PTSUNNY   72  61  68 N8        30.13R
Teterboro      PTSUNNY   72  61  68 CALM      30.12S
$$

NYZ177-179-078>081-252200-
LONG ISLAND NEW YORK

CITY           SKY/WX    TMP DP  RH WIND       PRES   REMARKS
Jones Beach      N/A     66 N/A N/A E6          N/A
Matinecock PT    N/A     66 N/A N/A E9          N/A
Farmingdale    CLOUDY    68  58  70 NE10      30.14R
MacArthur/ISP  CLOUDY    69  59  70 N8        30.14R
Shirley        PTSUNNY   70  60  70 N6        30.15R
Mt Sinai Harb    N/A    N/A N/A N/A NE1         N/A
Westhampton    CLOUDY    68  59  73 NE7       30.16R
East Hampton   CLOUDY    65  57  76 NE6       30.14R
Montauk          N/A     65  58  78 NE5       30.16R
$$

NYZ052-065-067-252200-
HUDSON VALLEY

CITY           SKY/WX    TMP DP  RH WIND       PRES   REMARKS
White Plains   PTSUNNY   66  59  78 E3        30.15R
Larchmont Harb   N/A     64 N/A N/A NE8         N/A
Croton O-T Hud   N/A     68 N/A N/A NE3         N/A
Newburgh       CLOUDY    66  61  82 E9        30.17R
Montgomery     CLOUDY    68  60  75 NE8       30.15R
Poughkeepsie   CLOUDY    65  58  78 SE5       30.15R
Albany         CLOUDY    65  58  78 N6        30.17S
$$

NJZ001-105-106-008-010-013-015-019>022-104-252200-
NEW JERSEY

CITY           SKY/WX    TMP DP  RH WIND       PRES   REMARKS
Newark/Liberty PTSUNNY   72  61  68 N8        30.13R
Teterboro      PTSUNNY   72  61  68 CALM      30.12S
Caldwell       CLOUDY    69  62  78 E8        30.14S
Somerville     LGT RAIN  70  66  87 N7        30.12R FOG
Linden         CLOUDY    73  59  62 CALM      30.13R
Perth Amboy      N/A     70 N/A N/A NE8         N/A
Sussex         CLOUDY    70  62  76 N7        30.14R
Andover          N/A     71  61  70 CALM      30.14R
Trenton        LGT RAIN  72  67  84 NW6       30.11R
Millville      CLOUDY    77  67  71 NW5       30.10R
Atlantic City  CLOUDY    73  67  81 E10       30.11S
Wrightstown    MOSUNNY   75  63  65 E5        30.08S
Toms River     PTSUNNY   74  65  73 E10       30.12S
Belmar         PTSUNNY   70  62  76 E9        30.14R
$$

PAZ047>061-062-071-252200-
EASTERN PENNSYLVANIA

CITY           SKY/WX    TMP DP  RH WIND       PRES   REMARKS
Philadelphia   LGT RAIN  75  61  61 VRB5G20   30.11R
Allentown      CLOUDY    74  59  59 VRB6      30.13R
Scranton       CLOUDY    72  61  68 VRB5      30.15F
$$

CTZ002-004>006-009-010-012-RIZ004-006-007-MAZ004-011-015-252200-
SOUTHERN NEW ENGLAND
 IN CT

CITY           SKY/WX    TMP DP  RH WIND       PRES   REMARKS
Bradley INTL   PTSUNNY   68  57  68 VRB7      30.16S
Hartford       CLOUDY    67  57  70 N9        30.15S
Danbury        CLOUDY    65  58  78 CALM      30.17R
Wtrbury/Oxford CLOUDY    64  54  68 NE7       30.17R
Bridgeport     CLOUDY    68  57  68 N8        30.15R
Meriden        CLOUDY    69  57  65 NE6       30.15R
New Haven      CLOUDY    70  58  65 N7        30.15R
Chester        CLOUDY    66  57  72 NE5       30.15S
Groton         CLOUDY    66  57  72 N9        30.14R
Wilimantic     CLOUDY    67  58  72 N5        30.16R

 IN RI

CITY           SKY/WX    TMP DP  RH WIND       PRES   REMARKS
Providence     CLOUDY    63  57  81 NE12      30.16S
Block Island   CLOUDY    64  58  80 N10       30.15S
Westerly       CLOUDY    65  58  78 N7        30.16R
 IN MA

CITY           SKY/WX    TMP DP  RH WIND       PRES   REMARKS
Boston         PTSUNNY   65  58  78 E13       30.16S
Worcester      CLOUDY    60  54  80 N3        30.18R
Westfield      CLOUDY    66  57  72 NE6       30.17R
Provincetown   PTSUNNY   63  57  81 N8        30.15S
Nantucket      CLOUDY    65  57  75 N17       30.11F
$$

ANZ330-335-338-340-345-350-353-355-252200-
COASTAL MARINE OBSERVATIONS


STATION/POSITION TIME  SKY/WX   TEMP    WIND        PRES    VSBY  WAVE
                                AIR SEA DIR/SP/G                  HT/PER
                 (UTC)          (F)     (DEG/KT/KT) (MB)    (MI)  (FT/S)
NY HARB ENTRANCE 1950            67 70   70/  8/  8 1019.9          3/ 6
20 S FIRE ISLAND 2050            67 73   50/ 10/ 14 1020.0          3/ 7
GREAT SOUTH BAY  2030            68 76   10/  8/ 10   N/A
23 SSW MONTAUK P 1950            64 71              1020.4          3/ 8
15 E BARNEGAT LI 2030               71                N/A           4/ 6
HUDSON CANYON    1950            68 74   50/ 14/ 17 1018.5          4/ 8
KINGS POINT      2030            68 71   50/  6/  8 1020.5
EXECUTION ROCKS  2045            69      70/  8/ 10   N/A
CENTRAL LI SOUND NOT AVBL
EASTERN LI SOUND NOT AVBL
ROBBINS REEF     2030                    50/  5/  8 1020.7
$$


>>>>>>>>>>>>>>>>>>>>>>>>>>>> KEY <<<<<<<<<<<<<<<<<<<<<<<<<<<
>                                                          <
>     SKY/WX - Sky Condition/Present Weather               <
>     TMP    - Temperature in Fahrenheit                   <
>     DP     - Dew Point in Fahrenheit                     <
>     RH     - Relative Humidity in Percent                <
>     WIND   - Direction (from) and Speed in MPH           <
>     PRES   - Mean Sea Level Pressure (inches of Hg)      <
>     WCI    - Wind Chill Index                            <
>     VSB    - VISIBILITY IN MILES                         <
>     HX     - HEAT INDEX                                  <
>     TC     - TEMPERATURE IN CELSIUS                      <
>     VRB    - VARIABLE WIND DIRECTION                     <
>                                                          <
>>>>>>>>>>>>>>>>>>>>>>>>>>>> KEY <<<<<<<<<<<<<<<<<<<<<<<<<<<




USA.gov is the U.S. government's official web portal to all federal, state and local government web resources and services.